User: anonymous   Login
Location: Igon
(43.1667°N, 0.2333°W)
Time: 09:36:46
(UTC+00:00)
Language:

SKYMED 3 - Orbit

View from above orbital plane
View from above orbital plane
View from above satellite
View from above satellite

Ground track
Ground track

The orbit data is extracted from the following two-line orbital elements,

1 33412U 08054A   21066.04312236 -.00000221  00000-0 -21243-4 0  9999
2 33412  97.8871 251.3883 0001465  87.6902 272.4468 14.82150715668932
Epoch (UTC): 07 March 2021 01:02:05
Eccentricity: 0.0001465
inclination: 97.8871°
perigee height: 621 km
apogee height: 623 km
right ascension of ascending node: 251.3883°
argument of perigee: 87.6902°
revolutions per day: 14.82150715
mean anomaly at epoch: 272.4468°
orbit number at epoch: 66893

The dashed part of the orbit path shows where the satellite is in the earth's shadow,  

DLR